2018-094F (43715 NORAD) Tracking and Keplerian Element Data

This shows tracking and keplerian element data for the satellite.

Feedback or suggestion? Click here.




ElementValue
Catalog43715
Name2018-094F
Epoch Orbit308
Epoch Day344.53667638
Epoch Year2018
RAAN349.1586
Inclination97.361
Eccentricity0.0020119
Argument of Perigee251.2352
Mean Anonmoly108.6704
Mean Motion15.27328574
Decay Rate2.478E-05
L11 43715U 18094F 18344.53667638 .00002478 00000-0 94861-4 0 9999
L22 43715 97.3610 349.1586 0020119 251.2352 108.6704 15.27328574 3088

Live tracking and technical data element details for 2018-094F (NORAD 43715). 2018-094F can be tracked NOW for your location showing map with azimuth and elevation plus other details from your city location.

Track the satellite on the map from your city or location and see movement details for azimuth, elevation, latitude, longitude, range, height, and movement on the map or in text.







IsCatalogInMostPopularTable: catalog: 43715, numindb: 12
Update: records affected: 1



GetName: 43715 2018-094F

Hit Count: updated at: Tue, 11 Dec 2018 03:06:35 GMT